Total_Precipitation_Accumulation
1.73 1.74 1.58 1.59 1.65 1.90 2.26 2.61 2.66 2.87 2.96 2.74 2.35 2.15 2.18 2.07 2.06 1.93 1.55 1.62 1.81 1.85 1.83 1.78 1.75 1.72 1.72 1.65 1.45 1.31 1.14 1.02 0.87 0.71 0.54 0.46 0.48 0.44 0.32 0.22 0.14 0.10 0.08
1.55 1.50 1.49 1.57 1.66 1.66 1.82 2.22 2.45 2.69 2.66 2.44 2.06 1.93 1.92 1.97 1.86 1.77 1.53 1.57 1.72 1.62 1.62 1.79 1.91 1.91 1.87 1.78 1.63 1.48 1.30 1.14 0.95 0.72 0.62 0.57 0.44 0.40 0.40 0.30 0.19 0.12 0.07
1.26 1.27 1.30 1.29 1.36 1.37 1.40 1.55 1.78 1.97 1.96 1.90 1.86 1.89 1.87 1.80 1.65 1.58 1.61 1.54 1.40 1.47 1.52 1.62 1.74 1.83 1.98 2.05 1.97 1.78 1.53 1.29 1.06 0.81 0.63 0.51 0.44 0.33 0.27 0.28 0.28 0.21 0.10
0.81 0.83 0.86 0.86 0.85 0.83 0.90 1.06 1.18 1.32 1.50 1.65 1.75 1.74 1.74 1.75 1.63 1.57 1.55 1.48 1.46 1.28 1.47 1.56 1.55 1.60 1.82 2.00 2.08 2.16 1.92 1.56 1.28 1.05 0.81 0.59 0.47 0.38 0.28 0.24 0.28 0.28 0.18
0.61 0.65 0.68 0.70 0.57 0.54 0.59 0.62 0.81 0.94 1.11 1.21 1.16 1.28 1.30 1.29 1.25 1.17 1.20 1.09 1.21 1.18 1.25 1.35 1.42 1.40 1.59 1.94 2.27 2.51 2.39 1.95 1.53 1.28 1.13 0.92 0.73 0.55 0.41 0.33 0.28 0.27 0.23
0.57 0.62 0.56 0.53 0.44 0.44 0.51 0.62 0.75 0.77 0.78 0.84 0.79 0.91 0.91 0.83 0.85 0.85 0.77 0.77 0.83 0.81 0.90 1.05 1.09 1.01 1.32 1.74 2.11 2.38 2.47 2.29 1.92 1.57 1.47 1.35 1.19 0.88 0.62 0.48 0.38 0.32 0.26
0.58 0.61 0.51 0.55 0.46 0.43 0.44 0.47 0.56 0.60 0.58 0.57 0.71 0.82 0.70 0.58 0.58 0.54 0.53 0.59 0.64 0.76 0.90 1.04 1.01 1.00 0.96 1.09 1.24 1.62 2.06 2.40 2.39 1.99 1.73 1.61 1.51 1.20 0.79 0.65 0.59 0.45 0.37
0.49 0.48 0.55 0.45 0.42 0.43 0.42 0.43 0.50 0.51 0.47 0.49 0.61 0.74 0.73 0.75 0.70 0.40 0.47 0.56 0.59 0.75 0.83 0.87 0.91 1.00 0.88 0.93 0.65 0.84 1.36 1.76 2.21 2.20 1.87 1.66 1.62 1.40 0.99 0.79 0.68 0.59 0.51
0.47 0.45 0.43 0.43 0.48 0.39 0.45 0.53 0.51 0.49 0.46 0.43 0.45 0.55 0.62 0.63 0.61 0.55 0.49 0.52 0.58 0.74 0.78 0.87 0.84 0.89 0.91 1.02 0.95 0.74 0.92 1.07 1.57 2.11 2.16 1.78 1.47 1.30 1.16 1.04 0.89 0.67 0.58
0.45 0.41 0.35 0.39 0.45 0.42 0.55 0.43 0.45 0.49 0.48 0.40 0.36 0.33 0.34 0.41 0.49 0.62 0.61 0.53 0.56 0.63 0.64 0.61 0.65 0.79 0.83 0.85 0.87 0.61 0.50 0.62 1.07 1.67 2.02 1.99 1.71 1.43 1.25 1.21 1.27 1.13 0.84
0.51 0.44 0.41 0.42 0.40 0.39 0.47 0.47 0.54 0.49 0.49 0.46 0.36 0.31 0.33 0.31 0.31 0.35 0.51 0.58 0.58 0.45 0.37 0.41 0.50 0.66 0.74 0.73 0.83 0.62 0.43 0.51 0.69 1.04 1.38 1.65 1.74 1.58 1.37 1.40 1.68 1.84 1.62
0.57 0.54 0.50 0.51 0.49 0.42 0.40 0.40 0.45 0.49 0.55 0.59 0.48 0.36 0.37 0.34 0.28 0.28 0.27 0.31 0.43 0.38 0.33 0.36 0.43 0.53 0.59 0.66 0.65 0.53 0.54 0.62 0.66 0.74 0.85 1.03 1.25 1.34 1.30 1.36 1.60 1.95 2.12
0.54 0.53 0.52 0.54 0.54 0.54 0.48 0.46 0.41 0.44 0.52 0.56 0.53 0.44 0.36 0.29 0.29 0.32 0.27 0.23 0.26 0.27 0.33 0.31 0.36 0.40 0.40 0.58 0.77 0.78 0.66 0.70 0.67 0.66 0.69 0.74 0.86 1.02 1.04 1.08 1.27 1.58 1.91
0.58 0.53 0.53 0.50 0.51 0.54 0.56 0.57 0.46 0.41 0.45 0.47 0.47 0.50 0.45 0.28 0.25 0.31 0.31 0.32 0.34 0.34 0.39 0.39 0.48 0.51 0.49 0.57 0.72 0.82 0.70 0.67 0.57 0.53 0.55 0.57 0.60 0.71 0.80 0.84 0.90 1.02 1.19
0.68 0.63 0.57 0.55 0.56 0.55 0.55 0.57 0.55 0.52 0.50 0.44 0.44 0.51 0.48 0.38 0.29 0.25 0.31 0.38 0.45 0.45 0.44 0.50 0.62 0.68 0.60 0.61 0.65 0.64 0.71 0.71 0.61 0.53 0.47 0.45 0.45 0.46 0.51 0.57 0.62 0.64 0.66
0.57 0.62 0.62 0.57 0.57 0.59 0.62 0.63 0.66 0.71 0.72 0.65 0.55 0.55 0.54 0.49 0.48 0.38 0.35 0.40 0.46 0.48 0.49 0.45 0.59 0.65 0.70 0.60 0.65 0.66 0.69 0.67 0.57 0.52 0.44 0.41 0.41 0.41 0.41 0.42 0.46 0.51 0.53
0.64 0.63 0.63 0.61 0.59 0.61 0.61 0.63 0.66 0.75 0.86 0.93 0.83 0.73 0.68 0.65 0.64 0.56 0.52 0.50 0.48 0.52 0.60 0.62 0.69 0.81 0.85 0.75 0.73 0.68 0.63 0.64 0.56 0.52 0.45 0.41 0.37 0.35 0.38 0.38 0.38 0.38 0.43
0.84 0.80 0.75 0.74 0.70 0.63 0.64 0.64 0.62 0.65 0.77 0.94 1.09 1.09 0.96 0.84 0.80 0.70 0.65 0.62 0.58 0.62 0.68 0.79 0.84 0.91 0.91 0.89 0.83 0.67 0.54 0.51 0.55 0.56 0.49 0.45 0.44 0.40 0.37 0.36 0.35 0.34 0.35
1.03 1.01 0.95 0.90 0.85 0.80 0.78 0.78 0.72 0.68 0.69 0.77 0.91 1.07 1.11 1.08 0.93 0.85 0.78 0.70 0.67 0.65 0.71 0.76 0.83 0.98 1.05 1.04 0.88 0.62 0.51 0.53 0.48 0.58 0.56 0.45 0.40 0.39 0.36 0.32 0.29 0.28 0.27
1.16 1.17 1.13 1.04 0.96 0.92 0.89 0.90 0.88 0.84 0.83 0.81 0.79 0.83 0.95 1.10 1.06 0.97 0.89 0.84 0.80 0.80 0.82 0.81 0.85 0.99 1.16 1.20 0.98 0.69 0.57 0.54 0.50 0.43 0.46 0.43 0.39 0.37 0.34 0.30 0.28 0.26 0.26
1.37 1.42 1.35 1.25 1.18 1.12 1.02 1.07 1.16 1.14 1.13 1.01 0.90 0.83 0.80 0.90 0.99 1.00 0.89 0.84 0.86 0.88 0.88 0.86 0.89 1.02 1.16 1.24 1.01 0.78 0.63 0.57 0.52 0.46 0.41 0.36 0.34 0.33 0.35 0.35 0.34 0.30 0.26
1.60 1.53 1.46 1.45 1.39 1.25 1.31 1.29 1.18 1.17 1.26 1.25 1.13 1.01 0.86 0.78 0.78 0.84 0.87 0.86 0.85 0.85 0.87 0.88 0.90 1.01 1.12 1.15 1.18 1.00 0.78 0.59 0.50 0.47 0.46 0.41 0.37 0.36 0.31 0.28 0.33 0.33 0.29
1.54 1.46 1.47 1.51 1.49 1.48 1.36 1.15 1.01 0.98 1.05 1.10 1.11 1.04 0.83 0.70 0.73 0.74 0.82 0.82 0.76 0.70 0.69 0.76 0.81 0.90 1.15 1.31 1.42 1.14 0.93 0.80 0.64 0.56 0.52 0.45 0.42 0.39 0.32 0.30 0.37 0.33 0.30
1.39 1.33 1.29 1.21 1.18 1.15 1.07 0.94 0.89 0.88 0.89 0.86 0.93 0.98 0.91 0.80 0.73 0.72 0.68 0.63 0.60 0.58 0.54 0.53 0.59 0.76 1.00 1.36 1.55 1.52 1.40 1.18 1.00 0.79 0.63 0.51 0.43 0.38 0.36 0.32 0.37 0.37 0.32
1.21 1.09 1.02 1.01 1.01 1.03 1.06 0.90 0.83 0.84 0.88 0.81 0.81 0.83 0.82 0.74 0.67 0.56 0.56 0.51 0.47 0.47 0.45 0.45 0.50 0.66 0.84 1.09 1.43 1.60 1.53 1.31 1.07 0.82 0.62 0.51 0.43 0.38 0.35 0.32 0.33 0.38 0.35
1.14 1.09 1.03 1.00 0.99 1.00 1.04 0.85 0.79 0.83 0.87 0.83 0.83 0.85 0.89 0.77 0.62 0.47 0.49 0.54 0.48 0.43 0.44 0.44 0.45 0.50 0.62 0.79 1.10 1.26 1.23 1.17 1.00 0.79 0.55 0.47 0.40 0.43 0.38 0.31 0.27 0.27 0.29